Home > Weather > Glace Bay > Past weeks

Flag for Canada Past Weather in Glace Bay, Nova Scotia, Canada — Yesterday and Last 2 Weeks

Now
50 °F

Fog.


Feels Like: 50 °F
Forecast: 52 / 67 °F
Wind: 2 mph from South

Location: Sydney

Current Time: Jun 26, 2016 at 7:14:22 AM

Latest Report: Jun 26, 2016 at 6:00 AM


Visibility: 0 mi

Pressure: 30.27 "Hg

Humidity: 100%

Dew Point: 50 °F

Location of Glace BayLocation

Past Weather in Glace Bay — Graph

°F

Glace Bay Temperature Yesterday

Maximum temperature yesterday: 77 °F (at 4:00 PM)
Minimum temperature yesterday: 46 °F (at 12:00 AM)
Average temperature yesterday: 61 °F

High & Low Weather Summary for the Past Weeks

 TemperatureHumidityPressure
High84 °F (Jun 19, 3:00 PM)100% (Jun 12, 3:51 PM)30.27 "Hg (Jun 12, 3:51 PM)
Low45 °F (Jun 11, 6:00 AM)22% (Jun 20, 6:00 PM)29.42 "Hg (Jun 13, 6:00 AM)
Average58 °F76%29.82 "Hg
* Reported Jun 11 6:00 AM — Jun 26 6:00 AM, Glace Bay, Weather by CustomWeather, © 2016

Note: Actual official high and low records may vary slightly from our data, if they occured in-between our weather recording intervals... More about our weather records

Advertising

Glace Bay Weather History for the Previous 24 Hours

Scroll right to see more
 ConditionsComfort  
Time TempWeatherWind HumidityBarometerVisibility
6:00 AM
Sun, Jun 26
50 °FFog.2 mph100%30.27 "Hg1 mi
5:00 AM50 °FFog.6 mph100%30.25 "Hg1 mi
4:50 AM48 °FFog.6 mph100%30.25 "Hg1 mi
4:00 AM52 °FPassing clouds.7 mph94%30.25 "Hg15 mi
3:00 AM52 °FPassing clouds.6 mph94%30.26 "Hg15 mi
2:00 AM52 °FPassing clouds.6 mph88%30.26 "Hg15 mi
1:00 AM54 °FPassing clouds.7 mph88%30.26 "Hg15 mi
12:00 AM55 °FPassing clouds.8 mph82%30.26 "Hg15 mi
11:00 PM
Sat, Jun 25
55 °FPassing clouds.10 mph82%30.26 "Hg15 mi
10:00 PM57 °FPassing clouds.10 mph67%30.26 "Hg15 mi
9:00 PM61 °FPartly sunny.10 mph59%30.24 "Hg15 mi
8:00 PM64 °FPartly sunny.9 mph56%30.23 "Hg15 mi
7:00 PM70 °FPartly sunny.14 mph43%30.22 "Hg15 mi
6:00 PM72 °FPartly sunny.15 mph41%30.21 "Hg15 mi
5:00 PM75 °FPartly sunny.14 mph36%30.21 "Hg15 mi
4:00 PM77 °FPartly sunny.8 mph36%30.21 "Hg15 mi
3:00 PM75 °FPartly sunny.12 mph39%30.22 "Hg15 mi
2:00 PM75 °FScattered clouds.12 mph36%30.23 "Hg15 mi
1:00 PM73 °FScattered clouds.10 mph44%30.22 "Hg15 mi
12:00 PM72 °FPassing clouds.10 mph44%30.24 "Hg15 mi
11:00 AM72 °FPassing clouds.9 mph50%30.24 "Hg15 mi
10:00 AM68 °FPassing clouds.10 mph49%30.24 "Hg15 mi
9:00 AM63 °FPassing clouds.10 mph64%30.24 "Hg15 mi
8:00 AM57 °FPassing clouds.8 mph82%30.24 "Hg15 mi
7:00 AM54 °FPassing clouds.7 mph88%30.24 "Hg15 mi
Weather by CustomWeather, © 2016

See weather overviewHow to use our weather pages